Track EUTELSAT 8 WEST B now! EUTELSAT 8 WEST B is classified as:
1 40875U 15039B 19053.80401378 -.00000088 +00000-0 +00000-0 0 9998 2 40875 000.0655 006.9323 0002745 330.5108 096.3779 01.00271691012891